Location: Newark
(33.6333°S, 78.8500°W)
Time: 09:40:13
(UTC+00:00)

Tiros 1 - Pass Details

Date: 19 October 2019
Orbit: 630 x 664 km, 48.4° (Epoch: 18 November)

Event Time Altitude Azimuth Distance (km) Brightness Sun altitude
Rises 21:42:42 0° 238° (WSW) 2,942 11.4 21.7°
Reaches altitude 10° 21:46:20 10° 209° (SSW) 2,031 10.2 20.9°
Maximum altitude 21:48:28 13° 182° (S) 1,846 9.6 20.5°
Drops below altitude 10° 21:50:35 10° 155° (SSE) 2,030 9.5 20.1°
Sets 21:54:14 0° 126° (SE) 2,939 10.1 19.3°
